Domov               UVHVVR             MKGP            O straneh              
ZDRAVSTVENO VARSTVO RASTLIN
  MREŽA AGROMET. POSTAJ
 ► PROGNOSTIČNA OBVESTILA
AGROMETEOROLOŠKI PODATKI -
ARSO
OBVLADOVANJE TVEGANJ ZARADI
NEUGODNIH VREMENSKIH RAZMER
  ► NARAVNE NESREČE
  ► SUŠA/MOČA
  ► NAMAKANJE
  ► ŽLED (gozdarstvo)
KARTOGRAFSKI PRIKAZI
SPLETNE POVEZAVE
PROJEKTI IN PUBLIKACIJE

AGROMETEOROLOŠKA MREŽA: VREMENSKE POSTAJE IN FENOLOŠKA OPAZOVANJA

Pregled podatkov za lokacijo Virštanj, meteorološka postaja 39749

Pregled senzorjev na lokaciji

ID Ime Zadnja
vrednost
Datum
zadnje
spremembe
Tip
senzorja
3124 Temperatura 2 m ( °C) 19,22 °C 18.10.2017 18:00 50YA
3125 Relativna vlaga 2 m (% RH) 52,38 % RH 18.10.2017 17:59 50YA
3127 Padavine 0.2 mm (mm) 0 mm 18.10.2017 18:00 Rain-O-Matic

Pregled podatkov zadnjih 24 ur

Zap.
št.
Datum in čas Virštanj
Padavine
0.2
mm
Relativna
vlaga
2
m
Temperatura
2
m
0 18.10.2017 17:00 0 52,38 19,22
1 18.10.2017 16:30 0 49,4 20,81
2 18.10.2017 16:00 0 47,25 21,71
3 18.10.2017 15:30 0 47,4 22,03
4 18.10.2017 15:00 0 47,96 22,12
5 18.10.2017 14:30 0 53,77 22,22
6 18.10.2017 14:00 0 61,54 21,42
7 18.10.2017 13:30 0 69,5 20,1
8 18.10.2017 13:00 0 75,38 18,19
9 18.10.2017 12:30 0 83,2 16,34
10 18.10.2017 12:00 0 91,18 14,75
11 18.10.2017 11:30 0 99,85 12,77
12 18.10.2017 11:00 0 99,93 12,01
13 18.10.2017 10:30 0 99,93 11,33
14 18.10.2017 10:00 0 99,93 11,38
15 18.10.2017 09:30 0 99,93 11,09
16 18.10.2017 09:00 0 99,93 10,99
17 18.10.2017 08:30 0 99,93 10,74
18 18.10.2017 08:00 0 99,93 10,45
19 18.10.2017 07:30 0 99,93 10,62
20 18.10.2017 07:00 0 99,93 10,62
21 18.10.2017 06:30 0 99,93 11,06
22 18.10.2017 06:00 0 99,93 11,38
23 18.10.2017 05:30 0 99,93 11,92
24 18.10.2017 05:00 0 99,93 12,26
25 18.10.2017 04:30 0 99,93 12,28
26 18.10.2017 04:00 0 99,93 12,58
27 18.10.2017 03:30 0 99,54 12,67
28 18.10.2017 03:00 0 99,29 13,14
29 18.10.2017 02:30 0 99,07 13,19
30 18.10.2017 02:00 0 98,46 13,41
31 18.10.2017 01:30 0 98,24 13,43
32 18.10.2017 01:00 0 97,63 13,58
33 18.10.2017 00:30 0 96,95 13,7
34 18.10.2017 00:00 0 95,73 13,97
35 17.10.2017 23:30 0 95,31 14,09
36 17.10.2017 23:00 0 94,02 14,36
37 17.10.2017 22:30 0 92,75 14,58
38 17.10.2017 22:00 0 93,82 14,46
39 17.10.2017 21:30 0 92,38 14,68
40 17.10.2017 21:00 0 91,67 14,95
41 17.10.2017 20:30 0 90,55 15,29
42 17.10.2017 20:00 0 89,94 15,58
43 17.10.2017 19:30 0 87,55 16,12
44 17.10.2017 19:00 0 85,52 16,58
© 2011 Ministrstvo za kmetijstvo, gozdarstvo in prehrano. Vse pravice pridržane.